#timestamp,LO_Frequency,Hit,StdDev 
1650380415.4,286047003.1,P
1650380435.2,286047003.6,P
1650380455.1,286047004.0,P
1650380456.0,286047004.0,Y
1650380475.8,286047000.7,P
1650380495.6,286046999.3,N
1650380515.5,286046998.7,N
1650380535.3,286047000.8,N
1650380555.1,286046998.2,N
1650380575.9,286046998.1,N
1650380595.7,286046998.8,N
1650380615.6,286046996.6,N
1650380635.4,286047001.0,N
1650380655.2,286046998.9,N
1650380675.1,286046997.8,N
1650380676.0,286046997.8,N
1650380695.8,286046998.0,N
1650380715.6,286046996.6,N
1650380735.5,286046997.8,N
1650380755.3,286046995.8,N
1650380775.2,286046997.9,N
1650380795.9,286046995.0,N
1650380815.7,286046995.2,N
1650380835.6,286046995.7,N
1650380855.4,286046997.7,N
1650380875.2,286046999.6,N
1650380895.1,286046999.6,N
1650380896.0,286046999.6,N
1650380915.8,286046995.4,N
1650380935.7,286046995.5,N
1650380955.5,286046997.6,N
1650380975.3,286046995.1,N
1650380995.2,286046995.5,N
1650381015.9,286046995.4,N
1650381035.7,286046995.8,N
1650381055.6,286046995.8,N
1650381075.4,286046993.7,Y
1650381095.3,286046997.3,P
1650381115.1,286046997.3,P
1650381116.0,286046997.3,P
1650381135.8,286046996.6,Y
1650381155.7,286047000.2,P
1650381175.5,286047001.7,N
1650381195.3,286047003.5,N
1650381215.2,286047005.8,N
1650381235.0,286047006.1,N
1650381235.9,286047006.1,N
1650381255.8,286047006.7,N
1650381275.6,286047007.4,N
1650381295.4,286047006.1,N
1650381315.3,286047007.6,N
1650381335.1,286047007.5,N
1650381355.9,286047005.4,N
1650381375.7,286047005.6,N
1650381395.5,286047003.4,N
1650381415.4,286047006.0,N
1650381435.2,286047005.4,N
1650381455.0,286047004.9,N
1650381455.9,286047004.9,N
1650381475.8,286047005.9,N
1650381495.6,286047005.6,N
1650381515.5,286047005.3,N
1650381535.3,286047005.0,N
1650381555.1,286047005.0,N
1650381575.9,286047005.5,N
1650381595.7,286047005.8,N
1650381615.5,286047004.9,N
1650381635.4,286047006.8,Y
1650381655.2,286046998.1,P
1650381675.1,286046998.3,N
1650381676.0,286046998.3,N
1650381695.8,286046999.3,N
1650381715.6,286046996.9,N
1650381735.5,286046996.7,N
1650381755.3,286046996.5,N
1650381775.1,286046999.1,N
1650381795.9,286046997.1,N
1650381815.7,286046994.9,N
1650381835.6,286046996.3,N
1650381855.4,286046996.2,N
1650381875.2,286046993.9,N
1650381895.1,286046996.3,N
1650381896.0,286046996.3,N
1650381915.8,286046996.4,N
1650381935.6,286046996.0,N
1650381955.5,286046995.9,N
1650381975.3,286046995.0,N
1650381995.2,286046997.9,N
1650382015.9,286046997.7,N
1650382035.7,286046996.5,N
1650382055.6,286046997.3,N
1650382075.4,286046997.1,N
1650382095.2,286046995.0,N
1650382115.1,286046995.9,N
1650382116.0,286046995.9,N
1650382135.8,286046996.3,N
1650382155.7,286046994.2,N
1650382175.5,286046994.7,N
1650382195.3,286046991.7,Y
1650382215.2,286046996.7,P
1650382235.0,286046999.1,P
1650382235.9,286046999.1,N
1650382255.8,286047001.2,N
1650382275.6,286047001.2,N
1650382295.4,286047000.7,N
1650382315.3,286047000.9,N
1650382335.1,286047000.6,N
1650382336.0,286047000.6,N
1650382355.8,286047000.9,N
1650382375.7,286047000.7,N
1650382395.5,286047000.8,N
1650382415.3,286046999.7,N
1650382435.2,286047002.8,N
1650382455.0,286047000.4,N
1650382455.9,286047000.4,N
1650382475.8,286047000.4,N
1650382495.6,286047001.1,N
1650382515.4,286046998.6,N
1650382535.3,286047000.9,N
1650382555.1,286047000.7,N
1650382575.9,286046999.7,N
1650382595.7,286047001.4,N
1650382615.5,286047004.3,Y
1650382635.4,286047001.4,P
1650382655.2,286047002.6,P
1650382675.0,286047002.3,N
1650382675.9,286047002.3,N
1650382695.8,286046999.8,N
1650382715.6,286046999.9,N
1650382735.5,286047001.3,N
1650382755.3,286047001.9,N
1650382775.1,286047000.3,N
1650382795.9,286047001.0,N
1650382815.7,286046999.6,N
1650382835.5,286046999.0,N
1650382855.4,286046997.5,N
1650382875.2,286046996.8,N
1650382895.1,286046997.8,N
1650382926.0,286046998.0,E
1650382935.0,286046996.9,N
1650382935.9,286046996.9,P
1650382955.7,286046998.6,P
1650382975.6,286046999.3,N
1650382995.4,286046998.5,N
1650383015.3,286046998.5,N
1650383035.1,286046998.7,N
1650383036.0,286046998.7,N
1650383055.8,286047000.4,N
1650383075.7,286046999.7,N
1650383095.5,286047000.7,N
1650383115.3,286046998.6,N
1650383135.2,286046998.7,N
1650383155.0,286046999.4,N
1650383155.9,286046999.4,N
1650383175.8,286046999.4,N
1650383195.6,286046997.7,N
1650383215.4,286046997.1,N
1650383235.3,286046996.6,Y
1650383255.1,286046997.2,P
1650383275.9,286046998.9,N
1650383295.7,286046998.6,N
1650383315.5,286047001.0,N
1650383335.4,286047000.0,N
1650383355.2,286047004.4,Y
1650383375.0,286047003.3,P
1650383375.9,286047003.3,N
1650383395.8,286047003.0,N
1650383415.6,286047007.1,Y
1650383435.5,286047005.3,P
1650383455.3,286047004.8,P
1650383475.1,286047005.5,P
1650383495.9,286047004.0,N
1650383515.7,286047002.6,N
1650383535.5,286047002.4,N
1650383555.4,286047000.8,N
1650383575.2,286046998.7,N
1650383595.1,286047000.5,N
1650383596.0,286047000.5,N
1650383615.8,286046998.5,N
1650383635.6,286046996.5,N
1650383655.5,286046995.4,N
1650383675.3,286046996.1,N
1650383695.1,286046997.9,N
1650383715.9,286046994.9,N
1650383735.7,286046997.3,N
1650383755.6,286046996.5,N
1650383775.4,286046998.8,N
1650383795.2,286046996.8,N
1650383815.1,286046997.7,N
1650383816.0,286046997.7,N
1650383835.8,286046996.5,N
1650383855.6,286046996.9,N
1650383875.5,286046996.8,N
1650383895.3,286046996.9,N
1650383915.2,286046996.9,N
1650383935.9,286046997.4,N
1650383955.7,286046995.4,N
1650383975.6,286046997.4,N
1650383995.4,286046998.0,N
